Tracking 18840 objects as of 19-November-2017
HD Live streaming from Space Station
objects crossing your sky now

FENGYUN 1C DEB

Track FENGYUN 1C DEB now!
10-day predictions


NORAD ID: 31481
Int'l Code: 1999-025BVV
Perigee: 640.0 km
Apogee: 718.9 km
Inclination: 99.3 °
Period: 98.2 minutes
Semi major axis: 7050 km
RCS: 0.0112 m2 (small)
Launch date: May 10, 1999
Source: People's Republic of China (PRC)
Launch site: Taiyaun Space Center, China (TSC)

Note: This is SATELLITE DEBRIS
aabbcc
Your satellite tracking list
Your tracking list is empty




NASA's NSSDC Master Catalog

Two Line Element Set (TLE):
1 31481U 99025BVV 17323.01508904  .00003644  00000-0  65364-3 0  9999
2 31481  99.2514 338.2112 0055958 242.9814 116.5667 14.66495559558588
Source of the keplerian elements: AFSPC